Garrison, ND

3:59 AM CDT on September 20, 2017 (GMT -0500)
Garrison

Weather History for KN60 - January, 2014

Change the Weather History Date:

Friday, January 31, 2014

  Actual Average Record
Temperature  
Mean Temperature 4 °F -  
Max Temperature 18 °F - 38 °F (2016)
Min Temperature -10 °F - -10 °F (2014)
Degree Days  
Heating Degree Days 61    
Month to date heating degree days 1650  
Cooling Degree Days 0    
Moisture  
Dew Point -2 °F    
Average Humidity 75    
Maximum Humidity 83    
Minimum Humidity 67    
Precipitation  
Precipitation 0.00 in - 0.10 in (2015)
Month to date precipitation 0.61  
Year to date precipitation 0.61  
Sea Level Pressure  
Sea Level Pressure 29.95 in    
Wind  
Wind Speed 8 mph (WSW)    
Max Wind Speed 17 mph    
Max Gust Speed 20 mph    
T = Trace of Precipitation, MM = Missing Value Source: NWS Daily Summary

Daily Weather History Graph

Daily Weather History Graph

Search for Another Location

Airport or City:

Trip Planner

Search our weather history database for the weather conditions in past years. The results will help you decide how hot, cold, wet, or windy it might be!

Date:

Astronomy

Jan. 31, 2014 Rise Set
Actual Time 8:13 AM CST 5:45 PM CST
Civil Twilight 7:40 AM CST 6:18 PM CST
Nautical Twilight 7:03 AM CST 6:55 PM CST
Astronomical Twilight 6:27 AM CST 7:31 PM CST
Moon 8:17 AM CST (1/31) 7:21 PM CST (1/31)
Length of Visible Light 10h 38m
Length of Day
9h 31m
New Moon, 1% of the Moon is Illuminated
Jan 31
New Moon
Feb 6
First Quarter
Feb 14
Full
Feb 22
Last Quarter
Mar 1
New

Hourly Weather History & Observations

Time (CST) Temp. Windchill Dew Point Humidity Pressure Visibility Wind Dir Wind Speed Gust Speed Precip Events Conditions
12:52 AM -6.0 °F -21.5 °F -11.9 °F 75% 30.09 in - West 8.1 mph - N/A   Unknown
1:52 AM -9.0 °F -18.2 °F -14.1 °F 79% 30.08 in - SSW 3.5 mph - N/A   Unknown
2:52 AM -5.1 °F -21.5 °F -9.9 °F 80% 30.06 in - West 9.2 mph - N/A   Unknown
3:52 AM -8.0 °F - -13.0 °F 79% 30.06 in - Calm Calm - N/A   Unknown
4:52 AM -7.1 °F -18.1 °F -11.9 °F 79% 30.04 in - SW 4.6 mph - N/A   Unknown
5:52 AM -8.0 °F -19.2 °F -11.9 °F 83% 30.02 in - SSW 4.6 mph - N/A   Unknown
6:52 AM -9.0 °F -25.2 °F -13.0 °F 83% 30.01 in - SSW 8.1 mph - N/A   Unknown
7:52 AM -7.1 °F -18.1 °F -11.0 °F 83% 30.00 in - SW 4.6 mph - N/A   Unknown
8:52 AM -5.1 °F -13.6 °F -9.9 °F 80% 30.00 in - South 3.5 mph - N/A   Unknown
9:52 AM -0.0 °F -13.0 °F -6.0 °F 76% 29.99 in - SW 6.9 mph - N/A   Unknown
10:52 AM 3.0 °F -9.3 °F -4.0 °F 73% 29.98 in - SW 6.9 mph - N/A   Unknown
11:52 AM 7.0 °F -9.8 °F -0.9 °F 70% 29.94 in - SW 13.8 mph - N/A   Unknown
12:52 PM 10.0 °F -5.2 °F 3.0 °F 73% 29.89 in - SW 12.7 mph - N/A   Unknown
1:52 PM 12.9 °F -2.8 °F 3.9 °F 67% 29.86 in - WSW 15.0 mph - N/A   Unknown
2:52 PM 16.0 °F 2.9 °F 7.0 °F 68% 29.82 in - SSW 11.5 mph - N/A   Unknown
3:52 PM 17.1 °F 5.8 °F 8.1 °F 68% 29.82 in - SW 9.2 mph - N/A   Unknown
4:52 PM 18.0 °F 6.9 °F 9.0 °F 68% 29.81 in - SSW 9.2 mph - N/A   Unknown
5:52 PM 14.0 °F 6.5 °F 7.0 °F 74% 29.82 in - SSW 4.6 mph - N/A   Unknown
6:52 PM 10.9 °F 1.4 °F 5.0 °F 77% 29.83 in - West 5.8 mph - N/A   Unknown
7:52 PM 14.0 °F 2.0 °F 7.0 °F 74% 29.86 in - NW 9.2 mph - N/A   Unknown
8:52 PM 15.1 °F -2.5 °F 7.0 °F 70% 29.88 in - NW 20.7 mph - N/A   Unknown
9:52 PM 10.9 °F -8.3 °F 3.9 °F 73% 29.92 in - NW 21.9 mph - N/A   Unknown
10:52 PM 9.0 °F -11.8 °F 1.9 °F 73% 29.95 in - NW 24.2 mph 32.2 mph N/A   Unknown
11:52 PM 6.1 °F -13.3 °F -0.9 °F 73% 29.99 in - WNW 18.4 mph - N/A   Unknown